Location: Riverton
(43.0250°N, 108.3790°W)
Time: 19:03:05
(UTC-06:00)

Amateur Radio Satellites - All Passes

Search period start: 25 October 2014 18:33
Search period end: 26 October 2014 18:33
Location: Riverton, 43.0250°N, 108.3790°W

Satellite Date Start Highest point End Downlink Frequencies (MHz)
Time Altitude Azimuth
JAS-2 25 Oct 18:39:23 18:45:04 45° 264° (W) 18:51:31 435.800 - 435.900 CW/SSB, 435.910 FM
KITSAT 1 25 Oct 18:45:29 18:50:28 17° 21° (NNE) 18:55:26 435.175 FM
SO-67 25 Oct 19:04:29 19:07:41 37° 73° (ENE) 19:10:54 435.3500 MHz FM
OPAL 25 Oct 19:36:41 19:41:04 32° 295° (WNW) 19:45:26 ?
STRAND 1 25 Oct 19:43:23 19:48:19 44° 99° (E) 19:53:12 ?
HO-68 25 Oct 19:49:08 19:54:41 25° 57° (ENE) 20:00:16 435.675 MHz FM
ISS 25 Oct 19:58:55 20:01:54 30° 223° (SW) 20:04:51 145.800 FM
SO-67 25 Oct 20:39:21 20:40:50 12° 269° (W) 20:42:20 435.3500 MHz FM
KITSAT 1 25 Oct 20:40:31 20:48:15 46° 48° (NE) 20:55:55 435.175 FM
Oscar 11 25 Oct 20:49:27 20:51:36 14° 62° (ENE) 20:53:45 145.825 FM, Beacon 2401.500 USB
SO-50 25 Oct 21:02:35 21:06:58 33° 46° (NE) 21:11:23 436.795 FM
RS-15 25 Oct 21:13:18 21:21:57 28° 103° (ESE) 21:30:29 29.354 - 29.394 USB, Beacon 29.352 USB
STRAND 1 25 Oct 21:23:06 21:27:15 25° 296° (WNW) 21:31:22 ?
HO-68 25 Oct 21:34:37 21:41:45 72° 256° (WSW) 21:48:57 435.675 MHz FM
ZACube-1 25 Oct 21:40:14 21:43:40 21° 66° (ENE) 21:47:03 437.345 MHz
UKube-1 25 Oct 21:42:24 21:46:38 54° 72° (ENE) 21:50:55 145.840 MHz, 145.915 MHz
UOSAT-12 25 Oct 22:20:54 22:24:36 22° 41° (NE) 22:28:15 437.025 FM, 437.400 FM
Oscar 11 25 Oct 22:22:59 22:27:16 63° 259° (W) 22:31:34 145.825 FM, Beacon 2401.500 USB
FUNcube-1 25 Oct 22:23:27 22:27:55 56° 73° (ENE) 22:32:21 145.950 - 145.970 MHz USB
KITSAT 1 25 Oct 22:36:04 22:43:40 47° 248° (WSW) 22:51:14 435.175 FM
SO-50 25 Oct 22:43:07 22:47:34 37° 244° (WSW) 22:52:01 436.795 FM
Oscar 10/S400 25 Oct 23:14:49 00:11:33 37° 219° (SW) 05:22:27 145.825 - 145.975 CW/USB, Beacon 145.810 USB
ZACube-1 25 Oct 23:15:27 23:19:47 41° 262° (W) 23:24:05 437.345 MHz
UKube-1 25 Oct 23:20:45 23:23:09 15° 269° (W) 23:25:35 145.840 MHz, 145.915 MHz
RS-15 25 Oct 23:22:02 23:33:03 81° 305° (NW) 23:44:04 29.354 - 29.394 USB, Beacon 29.352 USB
HO-68 25 Oct 23:28:20 23:30:40 12° 274° (W) 23:33:01 435.675 MHz FM
MaSat-1 25 Oct 23:47:05 23:51:03 48° 113° (ESE) 23:54:40 437.345 MHz
UOSAT-12 26 Oct 00:00:29 00:05:08 61° 240° (WSW) 00:09:42 437.025 FM, 437.400 FM
FUNcube-1 26 Oct 00:01:59 00:04:37 15° 269° (W) 00:07:14 145.950 - 145.970 MHz USB
MaSat-1 26 Oct 01:24:21 01:26:48 16° 307° (NW) 01:29:08 437.345 MHz
RS-15 26 Oct 01:38:00 01:47:21 31° 333° (NNW) 01:56:50 29.354 - 29.394 USB, Beacon 29.352 USB
JAS-1B 26 Oct 02:03:37 02:09:39 32° 97° (E) 02:16:36 435.800 - 435.900 CW/SSB
Oscar 19 26 Oct 02:04:09 02:08:31 28° 95° (E) 02:12:51 437.125 CW, 437.150 USB
AO-27 26 Oct 02:25:43 02:29:19 19° 92° (E) 02:32:53 436.795 MHz FM
AO-Echo 26 Oct 02:34:42 02:39:21 30° 95° (E) 02:43:59 ?
Oscar 16 26 Oct 02:49:39 02:54:47 75° 103° (ESE) 02:59:54 437.025 USB, Beacon 2401.1428
Sapphire 26 Oct 02:55:24 02:58:26 15° 104° (ESE) 03:01:30 437.095 MHz 1200 baud AX-25 AFSK
Uribyol 2 26 Oct 03:11:39 03:16:44 51° 100° (E) 03:21:46 436.500 FM
PCSat 26 Oct 03:16:10 03:20:33 26° 108° (ESE) 03:24:58 145.825 MHz
ITAMSAT 1 26 Oct 03:18:00 03:23:09 55° 101° (E) 03:28:14 435.822 SSB
Oscar 19 26 Oct 03:43:14 03:47:55 37° 292° (WNW) 03:52:35 437.125 CW, 437.150 USB
Gurwin Techsat 1B 26 Oct 03:45:38 03:50:51 53° 100° (E) 03:56:01 435.225 FM
JAS-1B 26 Oct 03:53:59 04:00:23 52° 291° (WNW) 04:07:58 435.800 - 435.900 CW/SSB
TMSAT-1 26 Oct 03:56:01 04:01:10 49° 99° (E) 04:06:17 436.925 FM
RS-15 26 Oct 03:56:03 04:04:28 24° 9° (N) 04:13:04 29.354 - 29.394 USB, Beacon 29.352 USB
AO-27 26 Oct 04:04:03 04:09:12 58° 289° (WNW) 04:14:18 436.795 MHz FM
AO-Echo 26 Oct 04:13:17 04:18:08 37° 292° (WNW) 04:22:58 ?
AO-7 26 Oct 04:14:24 04:20:27 22° 91° (E) 04:26:28 29.400 - 29.500 MHz
Uosat F 26 Oct 04:22:52 04:24:47 12° 89° (E) 04:26:41 435.120 FM
Oscar 16 26 Oct 04:30:37 04:33:31 15° 301° (WNW) 04:36:25 437.025 USB, Beacon 2401.1428
Sapphire 26 Oct 04:35:46 04:41:10 77° 301° (WNW) 04:46:38 437.095 MHz 1200 baud AX-25 AFSK
Uribyol 2 26 Oct 04:51:54 04:55:51 22° 297° (WNW) 04:59:47 436.500 FM
ITAMSAT 1 26 Oct 04:58:24 05:02:13 21° 298° (WNW) 05:06:02 435.822 SSB
PCSat 26 Oct 04:58:27 05:03:40 48° 306° (NW) 05:08:57 145.825 MHz
OPAL 26 Oct 05:13:19 05:18:24 65° 70° (ENE) 05:23:27 ?
Gurwin Techsat 1B 26 Oct 05:26:26 05:30:26 22° 297° (WNW) 05:34:24 435.225 FM
TMSAT-1 26 Oct 05:36:38 05:40:45 23° 297° (WNW) 05:44:52 436.925 FM
JAS-2 26 Oct 05:46:48 05:53:38 32° 92° (E) 06:00:23 435.800 - 435.900 CW/SSB, 435.910 FM
Uosat F 26 Oct 05:59:06 06:04:11 81° 286° (WNW) 06:09:13 435.120 FM
AO-7 26 Oct 06:05:45 06:14:06 83° 290° (WNW) 06:22:26 29.400 - 29.500 MHz
RS-15 26 Oct 06:09:58 06:20:34 47° 41° (NE) 06:31:32 29.354 - 29.394 USB, Beacon 29.352 USB
Hamsat 26 Oct 06:13:53 06:17:06 21° 93° (E) 06:20:19 145.90 MHz
Sapphire 26 Oct 06:22:16 06:25:32 16° 322° (NW) 06:28:49 437.095 MHz 1200 baud AX-25 AFSK
PCSat 26 Oct 06:46:50 06:48:29 11° 328° (NNW) 06:50:08 145.825 MHz
OPAL 26 Oct 06:54:33 06:57:42 16° 267° (W) 07:00:50 ?
STRAND 1 26 Oct 07:00:07 07:05:12 70° 73° (ENE) 07:10:21 ?
Saudisat 1A 26 Oct 07:01:52 07:05:24 24° 113° (ESE) 07:08:57 436.775 MHz
JAS-2 26 Oct 07:31:19 07:38:55 60° 290° (WNW) 07:46:32 435.800 - 435.900 CW/SSB, 435.910 FM
Uosat F 26 Oct 07:40:33 07:42:08 11° 303° (WNW) 07:43:42 435.120 FM
Hamsat 26 Oct 07:49:20 07:53:07 34° 290° (WNW) 07:56:55 145.90 MHz
AO-40 26 Oct 07:56:37 23:55:09 41° 183° (S) 08:31:38 Beacon 2401.320
SO-67 26 Oct 07:59:28 08:02:44 39° 98° (E) 08:05:59 435.3500 MHz FM
AO-7 26 Oct 08:00:00 08:05:43 21° 311° (NW) 08:11:26 29.400 - 29.500 MHz
RS-15 26 Oct 08:22:29 08:33:23 61° 245° (WSW) 08:44:46 29.354 - 29.394 USB, Beacon 29.352 USB
Saudisat 1A 26 Oct 08:40:38 08:44:46 39° 311° (NW) 08:48:56 436.775 MHz
STRAND 1 26 Oct 08:42:05 08:44:54 15° 270° (W) 08:47:45 ?
HO-68 26 Oct 09:02:25 09:07:40 21° 91° (E) 09:12:52 435.675 MHz FM
JAS-2 26 Oct 09:18:49 09:22:26 14° 309° (NW) 09:26:05 435.800 - 435.900 CW/SSB, 435.910 FM
MaSat-1 26 Oct 09:32:04 09:34:37 59° 246° (WSW) 09:36:59 437.345 MHz
SO-67 26 Oct 09:33:45 09:35:21 13° 294° (WNW) 09:36:58 435.3500 MHz FM
Oscar 11 26 Oct 10:10:17 10:13:36 21° 94° (E) 10:16:55 145.825 FM, Beacon 2401.500 USB
RS-15 26 Oct 10:39:42 10:43:21 12° 266° (W) 10:47:03 29.354 - 29.394 USB, Beacon 29.352 USB
HO-68 26 Oct 10:48:50 10:56:01 75° 289° (WNW) 11:03:10 435.675 MHz FM
ZACube-1 26 Oct 11:03:53 11:07:46 34° 97° (E) 11:11:34 437.345 MHz
UKube-1 26 Oct 11:05:33 11:09:57 89° 104° (ESE) 11:14:19 145.840 MHz, 145.915 MHz
KITSAT 1 26 Oct 11:11:36 11:17:44 25° 104° (ESE) 11:23:53 435.175 FM
Sapphire 26 Oct 11:40:20 11:44:17 20° 42° (NE) 11:48:13 437.095 MHz 1200 baud AX-25 AFSK
Oscar 11 26 Oct 11:45:57 11:49:52 35° 290° (WNW) 11:53:46 145.825 FM, Beacon 2401.500 USB
FUNcube-1 26 Oct 11:47:59 11:52:15 77° 285° (WNW) 11:56:24 145.950 - 145.970 MHz USB
PCSat 26 Oct 12:02:18 12:07:01 29° 47° (NE) 12:11:41 145.825 MHz
Oscar 16 26 Oct 12:30:46 12:33:56 17° 60° (ENE) 12:37:06 437.025 USB, Beacon 2401.1428
HO-68 26 Oct 12:38:28 12:42:33 16° 309° (NW) 12:46:39 435.675 MHz FM
ZACube-1 26 Oct 12:40:43 12:43:58 22° 294° (WNW) 12:47:10 437.345 MHz
ISS 26 Oct 12:41:01 12:44:15 51° 142° (SE) 12:47:30 145.800 FM
UKube-1 26 Oct 12:44:51 12:45:26 10° 301° (WNW) 12:46:01 145.840 MHz, 145.915 MHz
JAS-1B 26 Oct 12:52:34 12:57:04 24° 62° (ENE) 13:01:31 435.800 - 435.900 CW/SSB
Uribyol 2 26 Oct 12:54:53 12:56:56 12° 57° (ENE) 12:59:00 436.500 FM
SO-50 26 Oct 12:58:23 13:02:48 60° 120° (ESE) 13:07:21 436.795 FM
ITAMSAT 1 26 Oct 13:01:01 13:03:23 13° 57° (ENE) 13:05:46 435.822 SSB
KITSAT 1 26 Oct 13:04:14 13:12:19 77° 304° (WNW) 13:20:27 435.175 FM
Oscar 19 26 Oct 13:21:48 13:26:40 44° 70° (ENE) 13:31:32 437.125 CW, 437.150 USB
Sapphire 26 Oct 13:22:54 13:28:22 80° 242° (WSW) 13:33:47 437.095 MHz 1200 baud AX-25 AFSK
Gurwin Techsat 1B 26 Oct 13:31:18 13:33:47 14° 58° (ENE) 13:36:16 435.225 FM
TMSAT-1 26 Oct 13:41:47 13:43:53 12° 57° (ENE) 13:45:58 436.925 FM
AO-27 26 Oct 13:44:28 13:49:01 32° 66° (ENE) 13:53:36 436.795 MHz FM
PCSat 26 Oct 13:45:26 13:50:39 48° 246° (WSW) 13:55:49 145.825 MHz
AO-Echo 26 Oct 13:48:31 13:53:06 40° 69° (ENE) 13:57:51 ?
Oscar 16 26 Oct 14:07:34 14:12:43 70° 258° (WSW) 14:17:52 437.025 USB, Beacon 2401.1428
UOSAT-12 26 Oct 14:12:35 14:16:43 33° 115° (ESE) 14:20:55 437.025 FM, 437.400 FM
ISS 26 Oct 14:18:05 14:21:04 30° 340° (NNW) 14:24:05 145.800 FM
Uribyol 2 26 Oct 14:30:21 14:35:35 84° 75° (ENE) 14:40:51 436.500 FM
ITAMSAT 1 26 Oct 14:36:53 14:42:06 89° 77° (ENE) 14:47:22 435.822 SSB
SO-50 26 Oct 14:40:15 14:43:45 21° 320° (NW) 14:47:20 436.795 FM
JAS-1B 26 Oct 14:41:50 14:47:31 47° 260° (W) 14:52:59 435.800 - 435.900 CW/SSB
Oscar 19 26 Oct 15:02:07 15:06:11 23° 266° (W) 15:10:16 437.125 CW, 437.150 USB
KITSAT 1 26 Oct 15:02:51 15:09:08 24° 327° (NNW) 15:15:26 435.175 FM
Gurwin Techsat 1B 26 Oct 15:07:39 15:12:58 90° 76° (ENE) 15:18:19 435.225 FM
Sapphire 26 Oct 15:09:51 15:10:51 11° 259° (W) 15:11:51 437.095 MHz 1200 baud AX-25 AFSK
AO-7 26 Oct 15:14:19 15:21:31 35° 57° (ENE) 15:28:44 29.400 - 29.500 MHz
TMSAT-1 26 Oct 15:17:39 15:22:57 83° 75° (ENE) 15:28:17 436.925 FM
AO-27 26 Oct 15:23:44 15:28:27 34° 263° (W) 15:33:13 436.795 MHz FM
Saudisat 1A 26 Oct 15:26:56 15:30:49 29° 45° (NE) 15:34:41 436.775 MHz
AO-Echo 26 Oct 15:28:01 15:32:01 25° 267° (W) 15:36:08 ?
Uosat F 26 Oct 15:36:18 15:39:56 20° 62° (ENE) 15:43:35 435.120 FM
UOSAT-12 26 Oct 15:52:34 15:56:49 34° 313° (NW) 16:01:09 437.025 FM, 437.400 FM
ISS 26 Oct 15:56:05 15:58:30 18° 360° (N) 16:00:56 145.800 FM
JAS-2 26 Oct 16:03:01 16:06:15 14° 51° (NE) 16:09:39 435.800 - 435.900 CW/SSB, 435.910 FM
Uribyol 2 26 Oct 16:13:38 16:15:42 12° 272° (W) 16:17:46 436.500 FM
ITAMSAT 1 26 Oct 16:20:47 16:22:18 11° 272° (W) 16:23:49 435.822 SSB
Gurwin Techsat 1B 26 Oct 16:51:59 16:53:39 11° 273° (W) 16:55:19 435.225 FM
TMSAT-1 26 Oct 17:01:17 17:03:31 13° 272° (W) 17:05:46 436.925 FM
KITSAT 1 26 Oct 17:04:36 17:08:09 13° 358° (N) 17:11:41 435.175 FM
AO-7 26 Oct 17:05:47 17:13:54 59° 257° (WSW) 17:22:05 29.400 - 29.500 MHz
Saudisat 1A 26 Oct 17:06:23 17:10:26 36° 244° (WSW) 17:14:28 436.775 MHz
Hamsat 26 Oct 17:08:40 17:11:30 18° 65° (ENE) 17:14:21 145.90 MHz
Uosat F 26 Oct 17:13:25 17:18:19 53° 259° (W) 17:23:16 435.120 FM
OPAL 26 Oct 17:24:01 17:26:38 14° 92° (E) 17:29:15 ?
ISS 26 Oct 17:32:57 17:35:57 30° 20° (NNE) 17:38:56 145.800 FM
JAS-2 26 Oct 17:43:55 17:49:55 74° 73° (ENE) 17:56:49 435.800 - 435.900 CW/SSB, 435.910 FM
